STARLINK-11162, 60123

Orbit data source: Space-Track

STARLINK-11162, 60123 is a payload satellite owned by SpaceX/Seattle (US) in LEO that was launched on Mon, 24 Jun 2024 UTC via an FALCON 9 launch vehicle from the Air Force Western Test Range (AFWTR). Payload-class satellites include a variety of spacecraft equipped with specific instruments for various scientific and technological missions. These include communications satellites like Starlink; space stations such as the ISS; scientific satellites like the Hubble; Earth observation satellites from companies like Planet Labs, Umbra, and HawkEye 360; GPS; miniature CubeSats for education and research; and military/defense satellites.

Loading next visibility...
Identifier
60123, 2024-118L
Orbit
LEO
Country
Flag of USUS
Related business
Manufacturer
SpaceX/Seattle
Mission
Operational Commercial Communications
Bus & Motor
STARLINK V2MD, Unknown motor
Mass
960 kg wet, ~910 kg dry
Launch date (UTC)
2024-06-24 (1 year ago)
Launch vehicle
FALCON 9
Launch site
Air Force Western Test Range (AFWTR)
Object type
Payload
Rocket body
Debris
Shape & HBR
Box + 2 Pan, 18.1 m
Radar Cross Section
36.964 m², Large (>1 m²)

Expand to show TLE details & history
Last TLE update: 22 hours ago

TLE from 22 hours ago
0 STARLINK-11162
1 60123U 24118L   25354.14206494  .00003646  00000-0  34888-4 0  9991
2 60123  53.1585 253.0912 0001247  96.5281 263.5878 15.69749050 85501
Epoch: 2025-12-20T03:24Z
TLE epoch observation values (Epoch: 2025-12-20T03:24:34.410Z)
Latitude
-0.00011°
Longitude
112.97462°
Altitude
360.624 km
Speed
7.694 km/s
True Right ascension
16h 52m 21s
True Declination
0° 00' 00"
Sunlit
Object was in daylight at epoch
Visualization orbit readout
Latitude
Unknown
Longitude
Unknown
Altitude
Unknown
Speed
Unknown
Apparent Right ascension
Unknown
Apparent Declination
Unknown
Sunlit
N/A
Visualization observer readout
Local Sidereal Time
00:29:52
Azimuth
Unknown
Elevation
Unknown
Doppler factor
Unknown
Orbital elements
Apogee altitude
360.716 km
Perigee altitude
359.036 km
Semi-major axis
6,738.013 km
Eccentricity
0.00012
Inclination
53.1585°
RAAN
253.0912°
Arg. of periapsis
96.5281°
True anomaly
263.5736°
Mean anomaly
263.5878°
Eccentric anomaly
263.5807°
Mean motion
3.92415 °/min
Orbital period
91.74 mins
BSTAR
0.000034888
Loading maneuver chart data...
Computing Atmospheric mass density...
Loading historical data...
Loading historical data...
Loading historical data...
Loading historical data...
Loading historical data...
Loading historical data...
Loading historical data...

Documentation

Showing up to 5 results
|